Wind_Speed
8 12 14 16 16 18 16 1 16 12 8 13 13 15 8 3 9 4 4 8 6 4 4 5 5 5 4 5 6 5 5 6 7 8 9 8 8 7 6 7 7 7 6 5 4 4 4 4 5
12 14 10 7 14 14 6 7 18 13 9 13 12 7 4 2 5 8 2 3 3 3 5 7 7 5 6 7 7 9 8 7 8 9 9 9 9 8 9 9 9 9 9 8 7 5 4 4 3
13 9 7 15 19 12 15 27 21 9 12 10 14 6 3 3 2 1 1 1 2 4 8 9 9 6 6 7 8 10 9 8 9 11 11 11 12 13 13 13 13 13 13 13 12 10 8 6 5
12 6 6 16 16 13 12 31 26 13 10 10 9 6 5 5 3 2 2 1 4 9 10 9 9 6 6 7 7 7 7 8 11 13 14 13 13 13 13 12 11 11 11 11 11 11 10 8 7
17 12 6 11 13 11 11 22 17 9 12 11 6 4 3 5 3 2 1 3 10 11 10 9 8 7 6 8 8 7 6 8 9 13 13 13 13 14 12 11 11 10 11 10 10 11 12 13 15
16 7 4 13 15 15 4 20 22 20 12 10 5 4 5 3 3 3 5 6 11 11 9 8 6 7 9 9 8 6 6 7 8 11 12 11 10 11 12 13 14 14 13 11 12 12 13 12 13
12 6 9 9 9 11 6 22 27 17 14 10 7 5 5 4 4 3 8 7 10 9 8 6 6 7 8 9 8 6 5 6 6 8 9 9 7 7 9 11 11 11 10 10 9 9 10 11 12
6 13 12 13 12 12 16 21 10 19 15 12 5 5 6 5 3 3 7 7 8 7 6 6 6 6 7 6 6 5 4 4 5 6 5 7 5 6 7 7 8 7 8 6 5 5 6 7 8
10 5 15 23 10 12 25 18 10 16 11 11 11 11 8 6 6 4 2 5 5 5 4 5 5 5 6 5 5 4 5 5 6 6 5 5 4 5 3 4 6 4 4 4 5 6 5 4 3
12 13 19 15 16 3 18 21 22 8 2 5 8 10 10 8 7 6 5 0 0 1 2 2 4 5 6 5 5 5 6 6 8 8 7 5 5 5 5 6 6 7 7 7 7 7 7 8 7
20 18 18 11 10 14 18 24 23 15 5 7 8 9 10 9 8 8 7 6 2 2 2 3 3 3 5 5 6 7 8 9 8 9 9 9 9 6 6 6 6 6 6 6 8 4 4 7 8
23 18 18 8 11 20 18 25 21 17 11 8 8 8 8 9 9 9 9 9 7 3 4 3 3 4 5 6 8 9 10 12 14 14 13 11 13 12 12 8 8 8 7 7 6 7 5 4 7
30 18 18 12 4 15 23 23 21 9 11 9 9 7 8 8 9 9 8 9 10 9 6 7 7 5 7 8 8 12 14 14 16 16 15 16 14 14 14 12 10 10 11 10 10 9 7 10 10
28 23 16 15 11 15 23 18 17 6 8 9 9 8 6 10 8 9 10 10 11 12 11 12 13 12 11 13 11 10 10 11 12 17 17 16 16 18 16 14 14 11 11 12 13 10 11 12 13
25 25 22 19 13 13 18 7 24 20 3 6 10 10 6 5 7 7 10 11 11 13 12 14 16 16 15 14 14 13 13 14 17 18 17 16 17 15 14 16 17 18 16 13 13 11 12 14 12
23 24 23 21 18 15 18 22 30 17 13 11 7 12 12 9 7 7 10 11 9 13 12 12 17 17 14 15 15 14 14 14 17 16 19 21 20 19 20 18 18 18 17 15 15 14 12 14 15
14 15 14 16 13 3 8 8 24 25 18 19 16 10 13 12 9 9 9 9 6 9 10 11 12 14 14 17 15 13 14 16 17 18 20 22 23 24 23 23 20 18 14 12 13 15 14 17 18
13 12 11 13 8 13 17 21 24 23 29 26 18 11 10 11 11 10 7 8 4 6 7 8 8 14 15 14 14 13 14 15 17 19 20 21 22 24 25 22 19 19 19 19 14 10 10 13 18
19 20 11 8 10 8 23 24 25 29 33 32 13 14 11 13 13 12 13 8 9 5 8 9 9 11 10 9 10 12 16 18 18 21 21 22 23 24 27 25 22 20 18 14 15 17 15 17 18
19 20 22 25 21 18 24 21 23 28 27 32 27 16 24 17 21 22 14 14 8 9 9 11 13 12 15 17 16 17 17 19 20 22 23 22 25 27 27 31 25 24 21 19 19 18 17 17 15
19 21 21 23 23 23 12 23 29 28 25 35 26 24 23 28 35 22 14 12 14 13 12 11 16 15 18 19 21 21 19 19 21 24 26 29 27 30 31 33 27 26 27 22 23 22 20 19 16
27 27 25 18 30 31 25 30 32 26 32 34 32 20 24 31 38 30 17 11 10 15 16 18 19 19 19 21 23 24 25 23 22 25 28 31 33 37 23 33 41 37 35 28 25 22 24 20 20
25 22 29 24 33 38 27 26 25 20 24 26 35 26 26 29 42 41 30 24 14 11 15 21 22 25 24 22 23 27 27 29 29 30 29 33 34 44 34 50 45 47 36 30 27 27 27 26 25
26 28 27 27 26 37 31 31 29 23 22 19 21 27 28 28 34 36 30 26 24 25 25 16 23 27 27 28 29 31 33 34 35 34 35 35 41 26 53 51 44 40 50 44 35 26 26 28 28
31 29 24 26 24 22 8 15 10 3 7 23 23 26 26 31 38 30 32 39 40 32 28 29 22 26 26 31 34 36 35 38 40 40 34 33 36 32 49 35 40 36 43 29 22 23 26 28 28
26 27 28 25 22 17 9 13 8 15 10 13 24 29 33 35 35 36 44 41 48 40 35 33 35 33 31 41 33 47 31 43 47 39 45 44 38 36 36 40 40 37 37 38 26 28 27 32 36
21 21 15 19 23 23 18 17 11 16 11 13 20 24 29 39 42 37 31 34 36 41 35 35 42 39 39 40 37 40 41 39 45 54 45 33 33 33 32 37 38 49 27 30 31 30 26 35 41
16 20 15 15 15 26 26 9 20 19 13 21 22 26 29 35 36 31 28 26 28 36 43 50 45 46 40 37 40 41 41 32 35 34 32 32 37 44 40 47 42 39 32 24 24 32 39 45 47
17 27 27 23 21 17 18 12 17 17 24 28 33 31 29 32 37 36 36 38 35 30 37 43 45 41 35 38 46 44 41 35 37 32 33 39 41 44 44 45 47 38 33 30 38 41 43 44 49
14 10 26 26 24 26 23 20 25 24 25 29 35 27 35 40 46 47 52 58 25 26 32 40 41 34 33 38 49 49 33 35 39 44 47 47 45 41 38 43 34 32 34 33 44 45 49 51 51
Wind_Direction
117 119 115 99 107 91 99 344 343 352 334 326 336 348 342 292 268 313 66 79 64 50 62 51 44 35 62 73 63 45 15 12 4 1 354 354 346 341 333 327 328 333 330 334 332 321 301 291 292
139 137 121 144 98 89 80 326 329 310 315 309 355 350 307 331 80 116 93 81 55 59 72 75 80 96 93 65 49 42 30 29 33 30 29 37 39 31 36 40 41 45 53 62 71 70 56 47 33
155 161 88 92 88 62 6 343 341 344 311 333 320 340 318 276 20 122 223 21 79 103 91 98 102 95 75 67 56 51 51 41 32 40 50 52 58 61 68 70 66 62 62 63 59 59 58 50 44
166 181 137 107 100 94 20 335 338 354 328 6 301 314 296 311 332 296 279 184 113 103 107 113 107 93 80 69 65 55 54 36 45 52 59 61 61 70 75 74 70 65 62 62 62 52 53 55 52
159 164 135 115 99 65 4 321 354 5 11 6 308 264 290 319 324 267 187 138 112 112 121 120 108 96 73 63 61 66 59 50 53 58 64 69 75 78 78 77 77 70 62 62 66 69 58 65 66
161 156 102 113 109 79 59 342 358 5 10 357 325 319 332 340 74 88 116 137 116 119 122 123 104 83 72 68 65 60 54 60 58 65 71 75 76 83 86 75 69 68 66 69 74 65 58 47 44
172 209 106 102 105 62 104 312 336 353 15 35 358 2 354 2 58 78 116 125 122 119 119 119 98 83 73 64 60 51 47 54 66 73 87 91 85 81 83 86 83 77 73 75 68 64 52 41 34
123 111 47 36 118 97 325 312 2 347 347 20 18 8 7 359 25 72 126 142 124 122 115 106 93 87 66 69 74 59 47 34 44 66 76 77 71 57 55 58 63 54 67 61 69 62 44 44 39
150 154 87 51 294 93 302 312 308 319 327 342 30 19 8 11 7 9 93 147 135 135 116 105 91 72 56 52 56 47 44 26 20 34 45 53 40 32 26 14 32 23 23 30 10 15 2 2 18
160 131 76 69 31 6 294 310 321 316 35 8 15 22 3 9 16 357 354 54 249 159 114 82 82 60 63 41 26 22 24 12 8 2 359 359 354 14 348 353 358 353 355 350 346 341 326 322 337
169 129 101 66 240 270 262 289 312 322 25 45 27 20 360 1 14 4 360 341 302 302 325 26 37 38 29 12 356 354 360 356 355 344 346 341 334 318 300 307 327 330 343 336 319 308 309 338 339
187 175 107 60 247 224 272 277 285 324 346 24 40 16 358 6 7 1 360 344 330 335 322 326 341 340 355 341 338 343 343 343 342 343 335 323 322 321 310 330 318 311 313 299 299 301 273 336 326
196 188 156 171 209 203 240 265 287 328 347 20 35 9 1 1 354 348 344 340 333 327 327 316 315 323 321 320 336 347 348 339 337 332 326 321 318 313 318 318 315 303 298 298 286 290 274 275 296
216 207 201 183 192 198 225 250 285 325 10 356 24 6 7 20 6 346 335 330 329 329 332 329 327 329 327 329 340 352 335 325 337 333 338 333 322 312 309 308 303 308 297 284 292 292 290 293 300
221 214 207 200 186 214 202 223 248 254 233 357 9 352 313 339 6 358 336 320 317 315 325 325 326 327 330 335 341 342 339 335 342 336 342 355 351 339 323 310 306 302 298 289 287 293 298 295 291
227 227 224 210 196 206 208 221 261 262 256 289 352 344 324 302 317 319 322 316 307 301 311 322 321 324 329 336 334 333 335 335 340 341 339 341 339 337 333 325 312 306 306 300 299 296 294 295 295
221 225 229 213 186 88 269 258 259 268 273 265 310 3 331 316 326 328 327 321 324 299 304 312 326 325 328 326 323 323 327 329 331 334 327 326 337 341 336 332 324 320 311 305 312 308 299 299 293
219 214 214 220 183 230 240 290 278 288 283 268 246 350 336 328 325 323 337 331 341 343 329 328 336 331 334 332 330 333 339 339 331 329 323 328 323 321 326 326 319 320 317 309 312 305 301 307 313
223 192 142 154 145 244 273 268 266 270 287 303 300 333 338 318 320 326 319 327 336 341 330 317 311 322 326 337 335 332 336 337 334 330 338 335 326 323 315 313 309 311 317 318 320 314 301 308 304
230 210 185 175 172 219 251 260 281 268 287 296 298 314 307 316 313 306 314 309 311 320 321 327 319 310 301 302 306 312 320 325 321 321 327 328 333 330 319 319 310 301 301 296 295 304 296 296 309
208 210 204 227 184 220 260 255 258 269 273 288 294 297 294 301 311 286 288 310 305 305 308 308 313 308 311 303 302 307 316 319 315 312 314 320 319 323 317 305 289 300 294 288 286 282 287 294 308
222 219 228 236 195 217 218 242 250 247 262 273 277 273 297 313 313 301 299 300 294 290 295 299 301 303 304 306 308 307 308 309 304 305 307 312 312 307 295 310 305 301 275 276 278 277 280 286 290
232 221 221 228 210 220 218 246 255 261 260 250 279 300 305 304 303 313 300 297 290 263 289 296 293 299 300 302 301 301 304 306 305 306 307 306 299 307 320 322 326 320 279 261 268 271 276 279 282
232 229 233 232 230 230 243 265 281 293 279 258 267 281 291 282 293 305 293 291 287 293 303 298 292 291 296 300 299 300 303 301 299 303 309 312 323 303 314 309 318 310 302 288 262 263 270 276 280
235 236 236 242 248 265 267 276 317 242 303 247 250 265 272 277 290 297 290 291 288 282 290 291 285 285 285 292 292 290 287 290 293 295 298 294 307 322 318 320 321 308 298 284 263 271 277 281 284
243 244 242 244 244 239 232 266 340 298 296 259 252 252 271 283 287 291 282 280 278 274 278 290 291 286 283 300 278 298 297 300 300 297 291 283 319 308 307 331 321 314 298 286 262 273 289 298 300
225 229 238 248 243 235 216 231 238 275 263 240 252 255 261 259 265 273 276 283 274 274 279 287 278 287 300 297 297 303 302 308 310 298 298 285 316 303 307 326 315 313 289 262 293 302 290 292 292
249 228 213 232 240 227 229 240 250 255 246 224 233 250 248 251 254 261 263 259 266 272 277 277 281 286 290 295 298 297 301 304 294 313 319 316 317 319 308 315 311 302 297 306 290 291 294 294 297
231 222 218 219 216 220 156 201 223 228 225 228 251 246 240 236 250 254 258 260 263 266 267 270 275 278 285 289 290 291 291 293 305 321 314 309 310 310 310 305 301 295 272 290 306 302 298 301 300
146 182 228 234 215 219 201 229 235 221 221 228 242 243 252 259 266 270 283 287 168 262 273 268 274 279 282 285 283 268 295 308 304 309 308 306 309 309 308 301 276 262 270 290 306 299 301 296 301
Height
5913 5912 5913 5912 5915 5909 5906 5910 5911 5912 5911 5906 5905 5905 5901 5900 5901 5904 5902 5901 5901 5900 5900 5900 5900 5901 5901 5900 5899 5899 5898 5897 5895 5894 5892 5891 5889 5888 5887 5887 5886 5885 5884 5883 5882 5881 5880 5879 5879
5913 5913 5913 5913 5915 5911 5909 5913 5915 5912 5911 5905 5907 5906 5904 5901 5903 5903 5900 5901 5902 5901 5900 5900 5900 5902 5901 5900 5899 5899 5899 5897 5895 5894 5893 5891 5889 5888 5886 5886 5885 5884 5883 5882 5881 5880 5879 5878 5878
5912 5913 5914 5912 5910 5913 5913 5912 5911 5913 5908 5906 5904 5905 5903 5902 5903 5903 5901 5901 5901 5902 5901 5901 5902 5903 5902 5901 5900 5899 5899 5898 5896 5894 5893 5891 5888 5887 5887 5886 5885 5884 5883 5882 5882 5881 5879 5879 5878
5913 5914 5914 5910 5910 5909 5911 5911 5910 5910 5907 5909 5906 5904 5904 5902 5901 5902 5902 5902 5902 5901 5902 5903 5903 5903 5902 5901 5900 5899 5899 5898 5896 5895 5893 5891 5890 5888 5887 5887 5886 5885 5884 5883 5882 5881 5880 5878 5877
5912 5911 5915 5913 5913 5913 5915 5916 5912 5912 5910 5909 5906 5904 5904 5902 5903 5903 5903 5903 5902 5902 5904 5904 5904 5904 5903 5902 5901 5901 5900 5899 5898 5896 5894 5893 5891 5889 5888 5887 5886 5886 5884 5883 5883 5881 5881 5879 5878
5913 5914 5912 5913 5909 5910 5916 5915 5912 5911 5910 5909 5907 5905 5905 5903 5903 5904 5906 5904 5903 5903 5904 5905 5905 5904 5904 5902 5902 5901 5901 5901 5899 5898 5896 5894 5892 5890 5889 5888 5887 5885 5884 5883 5883 5882 5881 5881 5879
5913 5913 5913 5913 5913 5915 5914 5916 5916 5912 5910 5911 5908 5907 5906 5904 5903 5905 5907 5904 5903 5904 5905 5906 5906 5906 5905 5903 5902 5902 5902 5901 5900 5899 5896 5895 5893 5891 5890 5888 5887 5886 5885 5884 5884 5883 5881 5880 5879
5913 5913 5912 5910 5911 5911 5919 5919 5920 5915 5912 5912 5911 5910 5908 5906 5905 5905 5909 5905 5905 5905 5907 5907 5907 5907 5906 5905 5903 5903 5903 5901 5901 5900 5898 5897 5895 5894 5891 5889 5888 5888 5887 5886 5885 5883 5883 5882 5880
5914 5914 5911 5909 5911 5906 5917 5918 5920 5916 5913 5910 5910 5908 5908 5907 5906 5907 5909 5908 5906 5907 5907 5907 5908 5907 5907 5907 5906 5904 5903 5902 5901 5901 5899 5898 5897 5895 5893 5892 5891 5890 5888 5886 5887 5886 5883 5880 5878
5916 5912 5910 5914 5914 5917 5919 5918 5917 5915 5915 5914 5912 5909 5909 5908 5907 5907 5908 5911 5909 5908 5908 5908 5908 5908 5908 5907 5907 5906 5904 5902 5901 5901 5899 5898 5896 5894 5892 5892 5892 5891 5890 5889 5887 5885 5883 5880 5879
5912 5910 5912 5917 5925 5921 5921 5918 5914 5913 5915 5913 5911 5910 5910 5909 5907 5907 5907 5909 5912 5910 5909 5909 5909 5909 5908 5908 5907 5906 5904 5902 5902 5900 5899 5897 5895 5893 5892 5891 5891 5889 5888 5886 5884 5883 5883 5882 5882
5910 5908 5909 5915 5921 5923 5917 5917 5917 5916 5915 5912 5910 5910 5910 5909 5908 5908 5908 5909 5909 5911 5909 5909 5909 5908 5909 5908 5907 5906 5904 5902 5900 5899 5897 5897 5895 5895 5893 5890 5888 5887 5885 5884 5883 5882 5881 5880 5878
5906 5906 5909 5913 5918 5920 5918 5918 5912 5917 5915 5912 5910 5911 5911 5910 5909 5908 5907 5908 5908 5907 5909 5909 5909 5909 5907 5908 5905 5903 5902 5901 5899 5898 5897 5893 5892 5891 5889 5888 5887 5886 5884 5882 5881 5879 5878 5878 5876
5905 5904 5909 5910 5914 5919 5919 5918 5912 5917 5917 5914 5911 5912 5911 5910 5909 5908 5907 5907 5906 5907 5906 5906 5906 5906 5906 5904 5903 5903 5903 5902 5900 5894 5892 5889 5887 5886 5886 5886 5883 5883 5883 5882 5878 5876 5874 5873 5873
5903 5902 5903 5907 5910 5916 5919 5917 5908 5912 5916 5914 5913 5913 5912 5910 5909 5908 5907 5906 5906 5905 5906 5905 5905 5904 5903 5902 5900 5899 5898 5895 5894 5892 5889 5888 5886 5883 5882 5880 5879 5878 5877 5875 5875 5873 5871 5871 5870
5900 5901 5902 5904 5907 5912 5915 5916 5905 5911 5916 5914 5913 5913 5912 5910 5909 5908 5906 5905 5905 5903 5904 5905 5903 5903 5902 5901 5899 5897 5895 5894 5893 5891 5888 5886 5884 5882 5880 5878 5875 5873 5873 5873 5872 5872 5870 5869 5867
5898 5900 5901 5905 5907 5910 5913 5914 5910 5909 5911 5914 5914 5912 5911 5910 5908 5906 5905 5904 5903 5902 5902 5902 5903 5901 5901 5899 5898 5896 5894 5892 5892 5890 5886 5883 5883 5880 5879 5877 5875 5874 5871 5869 5867 5865 5866 5866 5865
5896 5899 5901 5902 5905 5908 5911 5911 5908 5908 5906 5907 5912 5908 5909 5908 5907 5906 5905 5903 5901 5900 5900 5900 5901 5899 5899 5897 5896 5894 5892 5891 5890 5887 5886 5884 5881 5878 5876 5874 5871 5871 5870 5867 5864 5862 5861 5860 5859
5893 5893 5898 5902 5905 5908 5909 5910 5907 5904 5902 5893 5902 5899 5908 5906 5906 5904 5904 5903 5900 5900 5898 5898 5898 5898 5896 5896 5894 5892 5890 5889 5887 5884 5884 5882 5879 5876 5873 5871 5870 5868 5866 5863 5860 5859 5857 5854 5854
5889 5891 5892 5894 5899 5904 5903 5905 5903 5900 5899 5891 5894 5892 5898 5903 5906 5905 5901 5900 5900 5899 5897 5896 5895 5896 5895 5893 5891 5889 5888 5886 5883 5880 5879 5878 5877 5874 5870 5868 5866 5863 5862 5860 5857 5855 5852 5850 5849
5884 5887 5888 5890 5895 5898 5899 5901 5903 5899 5899 5895 5887 5890 5893 5895 5898 5900 5900 5897 5896 5896 5896 5894 5893 5892 5892 5890 5888 5886 5885 5882 5879 5876 5873 5871 5870 5868 5866 5859 5860 5859 5857 5853 5850 5848 5847 5844 5843
5878 5883 5885 5888 5891 5892 5894 5895 5898 5901 5899 5892 5893 5893 5891 5891 5891 5892 5892 5892 5891 5891 5892 5891 5890 5888 5888 5887 5886 5883 5880 5878 5877 5873 5871 5868 5863 5859 5856 5857 5855 5850 5849 5847 5843 5841 5838 5839 5838
5874 5878 5879 5881 5885 5887 5889 5888 5892 5895 5894 5895 5885 5893 5890 5889 5886 5886 5885 5885 5885 5887 5887 5887 5886 5884 5883 5883 5881 5877 5876 5873 5870 5867 5864 5861 5853 5847 5848 5846 5842 5838 5835 5836 5835 5832 5831 5831 5831
5870 5872 5874 5876 5880 5881 5886 5887 5888 5890 5890 5891 5892 5892 5889 5889 5887 5882 5878 5879 5880 5879 5880 5882 5882 5880 5879 5876 5875 5873 5869 5865 5862 5860 5855 5849 5845 5839 5843 5840 5837 5834 5831 5827 5822 5822 5823 5823 5823
5863 5866 5872 5873 5876 5880 5886 5883 5885 5886 5885 5885 5887 5888 5887 5886 5884 5885 5877 5872 5872 5873 5873 5875 5877 5876 5873 5872 5868 5864 5862 5857 5852 5852 5849 5844 5840 5843 5839 5833 5829 5826 5823 5821 5797 5815 5814 5813 5814
5859 5864 5866 5868 5872 5873 5876 5878 5882 5880 5880 5882 5881 5883 5882 5881 5879 5878 5873 5865 5861 5863 5863 5866 5867 5870 5870 5866 5859 5853 5853 5848 5843 5840 5839 5832 5835 5832 5831 5830 5822 5818 5815 5815 5816 5810 5807 5807 5806
5853 5855 5862 5863 5868 5869 5873 5876 5879 5876 5878 5878 5879 5878 5877 5871 5870 5867 5864 5862 5854 5852 5854 5853 5856 5860 5861 5857 5855 5853 5848 5839 5835 5829 5826 5827 5827 5824 5825 5822 5819 5811 5807 5810 5808 5804 5803 5799 5798
5850 5854 5855 5858 5861 5863 5868 5874 5870 5870 5867 5868 5864 5865 5865 5863 5861 5860 5861 5861 5857 5852 5851 5846 5849 5851 5851 5848 5843 5842 5837 5836 5830 5824 5822 5822 5817 5817 5816 5813 5812 5810 5800 5800 5799 5798 5794 5791 5787
5845 5848 5849 5853 5855 5857 5862 5866 5861 5864 5863 5860 5857 5854 5854 5851 5841 5838 5842 5846 5850 5852 5848 5842 5838 5840 5840 5838 5830 5825 5822 5822 5820 5814 5816 5817 5812 5811 5808 5807 5803 5803 5792 5791 5789 5787 5785 5779 5775
5840 5846 5847 5849 5852 5852 5856 5854 5852 5855 5854 5853 5851 5853 5848 5846 5840 5841 5839 5806 5774 5835 5842 5838 5832 5831 5830 5825 5815 5806 5814 5811 5813 5812 5809 5808 5804 5800 5798 5799 5789 5785 5787 5782 5779 5776 5772 5766 5763